Theta_e
290 291 292 292 293 292 293 292 292 294 293 295 298 299 296 295 291 288 287 286 287 288 293 291 293 295 294 297 298 297 298 299 298 298 298 299 299 300 302 304 304 305 305 305 306 306 306 307 308 308 308 308 309 310 309 309 310 310 310 310 311 311 311 312 311 311 312 313 313 314 314 314 313 313
289 288 288 288 289 290 289 291 291 290 293 293 294 296 297 297 292 291 288 287 290 289 291 292 292 293 294 293 297 296 295 296 296 296 297 297 297 299 300 302 302 302 303 303 303 303 304 305 306 307 307 307 308 309 309 309 309 310 310 311 310 310 311 311 311 311 311 312 312 314 314 315 314 313
286 285 286 286 286 288 288 290 290 288 289 291 292 294 296 297 296 293 291 287 290 291 289 291 292 293 293 294 293 294 294 295 296 295 295 296 296 296 297 298 300 300 301 302 302 303 304 304 304 304 304 304 306 307 308 308 308 308 309 310 310 309 310 309 309 310 310 310 311 312 315 315 314 313
285 285 286 286 286 287 285 287 287 288 288 289 290 292 294 296 296 295 292 289 288 291 290 291 291 292 292 293 292 292 293 294 294 294 294 294 294 295 295 296 298 299 300 301 301 301 302 303 302 302 303 304 306 306 307 307 307 307 307 308 309 307 308 307 307 308 308 310 311 311 313 313 312 311
283 284 285 286 287 286 285 287 287 287 288 287 288 289 291 293 293 293 291 288 288 290 292 291 291 291 292 291 292 290 291 291 292 293 293 294 293 294 294 295 295 297 299 300 300 300 301 300 300 301 302 303 303 304 305 305 305 306 306 306 307 306 306 307 307 308 308 309 309 311 312 311 311 310
283 283 284 285 285 285 285 286 285 286 286 285 285 286 287 289 290 291 290 289 288 287 289 289 290 290 290 289 291 290 290 290 291 291 292 293 293 293 293 294 294 296 297 299 298 299 299 299 300 301 301 302 302 303 305 303 304 304 304 303 303 305 305 307 306 306 307 309 310 311 311 310 310 308
283 284 283 284 284 284 284 284 284 284 284 284 284 285 285 286 287 288 290 289 286 286 287 289 288 289 289 289 289 290 291 291 291 290 290 291 292 292 292 292 293 295 297 298 299 299 299 300 300 300 301 302 301 302 302 301 302 302 302 302 301 301 302 303 303 304 305 307 310 310 310 308 307 306
283 283 283 284 284 284 283 284 284 284 283 283 284 284 284 285 286 286 287 289 289 288 287 288 288 289 288 289 290 291 291 291 290 290 291 291 290 290 291 291 291 293 296 297 298 298 299 299 299 300 300 301 301 300 300 300 300 300 299 300 300 300 300 301 301 302 306 309 310 308 306 306 304 304
283 283 283 284 284 283 283 283 283 283 283 284 283 284 285 284 285 285 286 287 288 287 286 287 289 289 289 290 290 290 289 289 289 290 289 289 290 290 290 290 291 293 295 295 296 296 297 298 298 299 299 299 299 299 299 299 299 298 298 297 298 299 299 300 301 304 304 304 304 304 304 303 302 302
283 283 283 283 283 283 282 283 283 283 283 283 283 283 284 284 284 284 285 286 287 287 287 287 287 288 288 287 288 289 287 287 287 288 289 289 289 289 288 289 290 290 290 289 291 293 294 295 296 297 297 297 297 297 297 297 297 296 295 296 296 297 299 301 303 302 302 300 301 301 301 301 301 300
283 283 283 283 283 283 283 283 283 283 283 283 283 283 284 284 284 284 285 285 286 287 286 287 287 287 288 288 286 288 289 289 288 287 286 286 288 288 288 288 289 289 289 290 293 292 292 293 293 294 295 296 296 296 296 296 295 294 294 295 296 299 301 301 300 299 299 299 299 299 298 298 299 298
282 283 283 283 283 283 283 283 283 283 283 283 283 284 283 284 284 284 284 285 286 286 286 286 286 286 287 287 288 288 288 286 287 288 287 285 286 287 288 288 288 288 289 288 288 290 291 291 292 293 293 293 293 293 293 293 292 291 292 296 299 300 300 299 297 297 297 297 297 297 295 295 296 297
282 282 282 282 282 282 284 285 285 286 286 284 283 284 284 283 283 283 284 285 285 285 285 285 286 286 286 286 286 286 286 285 285 287 287 286 286 287 287 288 289 289 288 288 288 288 287 287 287 287 286 287 289 289 290 290 290 292 295 297 297 296 296 296 296 295 295 295 295 294 294 294 294 294
281 281 281 281 283 284 284 284 285 287 287 287 286 285 284 284 283 284 284 284 285 285 284 284 285 284 284 285 286 285 286 287 287 286 286 285 286 286 286 287 288 289 288 288 287 288 288 287 287 287 286 287 287 286 288 288 291 293 297 297 296 296 296 295 295 295 294 294 293 293 293 293 292 292
280 281 281 280 281 282 283 282 285 286 287 287 287 287 287 287 285 284 283 284 284 284 283 284 284 284 284 285 286 286 286 286 286 286 285 285 285 284 283 282 286 289 287 286 286 287 288 286 286 287 287 287 286 286 287 291 293 294 296 296 296 296 295 294 293 293 293 292 292 292 291 290 290 290
280 280 280 280 281 280 281 282 282 283 284 285 286 286 287 287 287 287 285 284 283 284 283 283 283 284 283 284 285 285 285 285 285 285 285 285 284 283 283 284 283 286 287 287 286 286 288 285 286 286 287 287 286 287 289 293 294 295 295 294 294 294 293 292 291 291 291 290 290 290 290 289 289 289
279 279 280 280 281 281 282 281 281 281 282 284 285 285 286 286 286 287 288 288 286 285 284 283 283 284 284 283 284 286 285 286 283 284 284 284 284 284 284 284 285 286 288 286 285 284 286 285 285 285 286 285 285 286 290 293 294 294 294 293 292 291 291 291 290 290 290 290 289 289 289 288 288 287
279 279 279 279 279 280 279 280 280 281 282 283 283 284 284 284 285 286 287 287 287 286 285 284 283 284 285 284 285 286 286 284 283 283 283 284 283 283 283 285 285 287 288 285 285 284 286 284 283 283 284 283 284 286 290 293 293 293 293 292 291 291 290 290 289 289 289 289 288 288 288 287 286 286
278 279 279 279 279 280 280 281 282 282 283 284 283 283 283 283 283 284 284 285 285 284 284 284 284 285 286 286 285 285 286 285 285 284 284 284 284 284 285 285 286 286 288 286 285 281 285 281 281 280 281 283 285 285 289 293 293 292 292 291 290 290 289 289 289 288 288 288 287 287 286 286 285 285
278 278 279 279 279 280 280 282 284 284 283 282 281 281 282 282 283 283 285 287 287 286 285 285 285 285 286 287 286 286 286 286 286 286 286 285 284 283 281 281 284 284 287 286 285 283 283 280 280 279 280 283 284 285 286 291 292 291 291 290 290 289 289 288 288 288 287 287 286 286 286 285 284 284
278 278 279 279 279 279 279 282 284 285 284 282 281 281 281 282 282 283 284 286 287 287 287 287 288 288 288 288 289 289 289 288 287 285 283 282 283 281 279 280 281 282 285 285 285 284 283 279 279 277 277 278 279 282 285 287 290 291 290 289 289 289 288 288 287 287 286 286 285 285 285 284 283 282
278 279 280 280 279 279 279 282 284 285 284 282 282 281 281 281 281 282 284 284 284 286 287 287 287 287 287 288 288 288 289 289 287 284 280 282 283 281 280 279 281 282 284 285 285 283 278 278 278 276 276 277 276 276 284 285 287 288 289 289 288 288 288 287 287 286 286 285 285 285 284 283 282 279
278 278 279 280 280 280 281 284 284 285 284 282 282 282 281 280 280 281 282 282 282 282 282 283 284 284 285 285 285 286 287 288 287 285 284 283 282 281 281 281 281 280 282 284 285 281 276 277 278 278 275 272 275 275 279 283 284 285 285 285 285 287 286 286 286 285 285 284 284 284 283 281 279 276
277 278 278 279 281 282 283 284 284 284 285 282 282 282 281 280 279 282 282 283 283 283 283 283 283 283 284 284 285 285 285 285 285 285 284 284 284 282 281 281 281 279 281 281 284 282 278 278 278 276 275 275 272 272 276 277 280 281 282 282 282 284 285 284 284 284 284 284 283 282 281 280 277 273
277 277 277 278 280 282 283 283 284 284 284 284 282 281 280 280 282 284 283 283 283 283 283 283 283 283 283 283 284 284 284 284 285 284 285 284 284 282 280 279 279 279 281 281 285 280 276 278 276 274 272 272 273 271 272 272 273 276 279 280 279 279 279 279 280 280 282 282 281 280 279 279 278 274
277 277 277 277 279 282 282 283 283 283 283 283 281 280 283 284 285 283 283 283 283 283 283 282 282 282 282 282 283 283 283 284 284 281 280 280 280 279 279 277 276 276 277 281 285 281 278 277 276 273 273 272 271 272 270 269 271 273 274 275 276 276 277 276 276 276 276 276 276 277 277 279 278 277
276 277 277 278 280 281 282 282 282 283 283 282 281 283 284 284 284 283 282 282 282 282 282 282 281 282 282 281 282 282 282 281 279 278 277 276 275 274 274 276 276 276 278 280 283 282 280 278 277 275 273 273 271 270 270 269 268 271 271 272 272 273 273 273 273 273 274 274 275 278 278 278 277 276
276 276 277 278 281 281 281 281 282 282 281 281 282 283 283 283 283 282 281 281 281 281 281 281 281 281 281 282 282 280 277 276 275 274 273 273 273 272 272 273 274 274 276 279 281 282 280 277 276 276 275 273 271 270 266 268 269 269 268 269 270 270 271 271 271 270 271 272 272 272 272 271 272 273
276 278 280 281 280 280 280 280 280 280 280 281 282 282 282 281 280 280 280 280 280 280 280 280 281 281 282 282 278 276 275 274 274 273 272 273 273 274 274 274 273 273 274 277 278 279 278 277 276 275 275 275 273 270 269 267 268 268 269 268 266 268 269 269 269 268 269 269 268 268 267 268 268 269
279 280 280 279 279 278 278 277 277 277 278 280 281 280 280 280 279 279 279 279 280 280 280 280 280 280 281 280 278 275 274 273 272 272 272 272 272 272 272 271 271 272 272 273 276 277 277 276 276 275 274 272 272 270 269 268 267 268 269 267 266 267 268 268 268 268 267 266 266 266 266 267 267 267
277 277 276 276 277 277 278 278 278 279 279 278 277 278 279 279 278 278 279 280 280 280 280 279 279 279 279 278 277 275 273 272 272 272 272 271 270 271 271 270 269 269 271 271 272 274 276 276 275 275 272 271 271 270 270 269 267 266 266 267 267 265 265 267 267 266 266 265 265 266 266 266 266 267
276 274 275 274 273 274 274 275 276 276 275 276 276 277 277 277 278 279 281 281 280 280 280 279 278 277 277 276 275 273 272 271 271 271 271 271 270 270 270 268 267 268 268 269 270 270 271 272 272 272 272 271 269 269 269 268 267 266 265 266 265 266 266 265 265 265 265 265 264 263 263 264 264 265
273 272 271 271 272 272 273 274 274 273 273 274 275 275 275 276 277 278 278 277 277 277 277 276 276 275 275 274 273 272 271 270 270 271 270 271 270 270 270 267 267 267 266 267 268 268 269 269 270 270 269 269 270 270 268 266 266 266 265 264 265 264 265 265 265 264 265 264 262 262 261 262 263 264
270 269 269 270 271 272 273 272 272 272 272 272 272 273 275 276 276 276 276 276 276 276 276 275 275 274 273 272 272 270 270 270 270 271 271 269 270 268 267 266 266 267 267 266 267 267 268 269 269 269 269 269 269 268 268 267 265 265 265 265 264 263 264 264 264 264 264 263 262 260 260 260 262 263
269 269 269 270 271 271 270 270 270 269 269 270 270 272 273 274 275 274 274 274 275 274 274 274 274 273 272 271 270 269 270 269 269 269 269 269 268 267 267 266 266 266 266 266 267 268 268 268 269 268 268 268 267 267 271 268 265 264 264 264 263 263 262 263 263 263 263 262 262 260 259 260 261 262
268 268 268 268 268 268 268 268 268 267 267 268 269 271 271 271 272 273 273 273 274 274 274 273 273 272 271 270 270 270 269 269 268 268 267 267 267 267 266 266 266 266 266 266 267 268 269 269 269 268 266 265 264 262 262 269 269 265 263 261 262 262 262 262 262 262 262 260 261 261 259 258 259 261
265 266 266 266 266 266 265 266 265 266 266 267 268 270 270 270 271 272 273 273 273 273 273 273 272 271 270 270 269 269 269 268 267 267 266 266 266 266 265 265 265 265 265 266 267 267 269 269 269 268 266 265 263 260 260 262 267 268 264 262 261 262 261 261 260 260 260 260 258 259 258 259 258 260
263 264 264 264 264 264 265 265 265 265 265 266 267 268 269 269 270 271 271 271 272 273 273 272 271 270 270 269 269 268 268 268 267 266 266 266 266 265 265 264 264 265 265 265 266 266 267 268 268 268 267 263 260 260 260 260 261 264 267 264 261 260 261 260 259 258 257 258 258 259 259 259 259 258
263 263 263 262 263 263 263 263 264 264 264 265 267 267 267 267 268 269 270 271 272 272 272 271 270 270 269 269 269 268 267 267 266 266 266 266 265 265 264 264 264 265 265 264 264 263 263 262 263 265 266 265 264 263 262 261 260 262 266 267 263 261 260 261 258 257 257 256 257 257 257 259 263 266
262 262 262 262 261 262 262 262 263 263 264 265 265 265 265 266 266 267 269 270 271 272 271 271 270 270 269 269 268 268 267 267 266 266 266 265 265 265 265 265 265 264 264 263 262 261 260 260 261 262 262 262 263 263 263 263 263 263 264 266 267 264 261 260 258 258 256 256 256 255 254 256 253 255
261 260 260 260 260 261 261 261 262 262 263 264 264 264 264 265 265 266 268 269 270 270 270 270 270 269 269 268 268 268 267 266 266 266 265 265 265 265 265 265 265 264 263 261 260 259 259 259 262 266 264 264 265 265 264 261 259 260 261 263 267 267 266 264 260 258 256 255 254 253 252 252 252 249
259 259 259 259 259 260 260 260 261 262 262 262 262 262 262 263 263 266 267 269 269 270 270 270 269 269 269 269 268 268 266 265 265 265 265 265 264 264 265 265 264 263 262 259 258 258 260 262 263 264 264 264 262 262 260 259 258 259 260 260 262 267 268 267 266 264 258 255 253 251 250 251 248 249
259 258 258 259 259 259 259 260 260 261 261 261 261 261 261 261 262 263 264 266 268 268 269 269 269 269 268 268 267 267 266 265 265 265 265 264 264 263 263 262 261 259 259 259 260 260 261 261 261 261 261 260 259 260 260 259 260 260 259 260 260 261 262 266 268 268 267 267 265 257 250 249 249 249
257 258 258 258 258 258 258 259 259 260 260 260 260 260 260 260 260 261 263 264 266 267 268 268 269 269 268 267 267 266 266 266 266 265 265 264 264 263 261 260 260 259 259 260 260 260 260 260 259 260 259 257 258 261 259 259 259 260 259 257 257 259 258 257 257 262 264 267 267 267 269 267 266 266
258 258 258 258 258 258 258 259 259 259 260 260 260 260 260 260 260 261 262 263 264 265 266 267 268 268 268 267 266 265 266 267 266 265 264 263 262 261 260 260 260 260 260 260 260 260 260 259 259 259 258 258 258 259 259 259 258 257 256 257 255 253 251 252 252 252 251 253 263 267 267 268 268 268
Wind_Speed
3 4 3 3 4 4 4 4 3 4 4 4 4 4 6 6 10 10 12 21 11 4 1 4 3 2 3 8 6 5 6 8 11 11 11 11 10 15 21 24 27 28 30 29 29 29 27 28 26 26 25 26 26 27 28 28 27 30 31 30 30 30 31 30 33 32 32 30 31 30 31 18 15 16
4 3 3 3 4 4 4 5 4 4 4 4 4 4 4 4 8 6 10 17 14 10 10 3 5 8 8 4 8 7 6 12 15 9 10 10 11 17 21 23 26 28 32 31 31 30 31 31 29 26 25 24 28 31 31 31 32 30 32 33 33 30 29 28 29 31 31 31 31 31 27 22 23 24
3 4 5 4 4 4 5 6 5 5 4 4 5 5 5 5 7 10 10 14 15 6 11 13 6 8 13 10 6 9 8 8 12 9 9 10 15 19 16 20 21 27 29 30 29 30 31 30 31 31 31 31 34 32 31 31 30 30 31 33 33 29 29 29 30 30 31 31 31 30 22 25 27 28
4 5 6 6 5 6 5 6 5 5 5 4 4 5 6 6 6 8 11 14 20 17 13 14 16 9 10 13 10 8 8 7 13 11 10 11 15 12 12 17 20 22 27 28 29 29 30 30 32 33 34 34 33 32 31 30 30 29 32 30 28 28 28 29 29 31 32 32 31 30 26 25 25 26
4 4 5 6 6 5 5 6 6 5 6 5 5 5 6 7 6 7 10 12 17 19 14 10 13 14 11 14 10 10 12 11 9 11 10 11 12 11 11 12 16 19 20 24 26 28 30 30 31 32 31 31 32 29 29 29 30 29 28 26 27 28 29 29 32 32 33 32 35 31 24 25 26 27
4 4 5 7 6 5 6 7 7 6 6 5 5 6 6 8 7 6 8 11 13 19 19 17 12 12 5 14 13 11 12 14 13 13 12 10 11 11 10 11 12 18 20 21 26 28 29 29 28 28 28 29 26 27 29 27 26 27 27 27 27 28 30 32 33 34 34 36 34 26 27 28 29 28
4 5 5 7 6 5 6 7 7 5 6 5 6 7 6 8 9 7 8 10 13 16 18 17 15 13 10 11 15 12 11 12 13 17 14 11 10 11 11 11 11 17 21 22 24 26 28 28 29 28 30 25 29 29 26 27 27 27 28 28 27 26 30 32 35 34 37 41 38 28 28 28 27 27
5 6 7 8 7 6 7 8 7 6 5 6 6 7 7 7 10 9 8 10 11 12 15 16 14 11 10 15 11 9 10 12 12 11 14 13 13 13 12 11 12 14 21 21 22 23 23 25 27 29 28 27 28 29 28 28 29 28 28 26 26 29 29 34 31 34 29 21 25 25 25 25 27 27
5 6 6 8 7 6 7 9 7 8 8 7 7 8 9 8 9 8 9 10 10 13 16 17 15 15 14 14 15 10 11 13 11 11 14 14 15 15 13 11 11 16 22 19 21 23 24 24 26 28 27 27 28 25 26 27 28 28 28 27 27 30 33 30 31 16 9 9 14 24 27 27 26 26
5 6 7 7 7 7 7 10 9 8 9 8 8 9 9 10 8 10 10 9 11 12 14 14 17 13 16 16 12 11 8 10 14 14 14 14 13 12 12 10 10 9 9 7 9 13 18 22 25 25 25 24 25 24 24 25 25 25 24 26 31 32 32 24 13 15 19 22 23 22 26 26 28 28
6 6 7 7 7 8 8 9 10 10 10 9 10 9 9 11 9 10 10 10 11 11 13 14 15 15 14 12 19 13 10 13 11 14 13 15 13 13 14 15 10 9 10 11 17 16 16 19 18 21 24 23 26 26 26 26 27 25 26 28 30 34 20 14 14 17 20 21 21 22 25 27 27 25
6 7 7 7 7 8 8 8 9 8 10 10 12 9 7 9 11 12 11 10 9 11 11 11 13 7 12 12 11 11 12 13 11 8 11 15 16 15 15 15 16 12 10 10 9 11 14 15 18 19 16 20 20 20 19 20 21 23 26 25 10 5 17 22 25 23 21 19 23 24 26 26 24 25
7 7 6 6 7 8 12 14 14 13 12 10 12 13 9 9 10 11 11 10 10 10 10 14 10 13 12 13 11 12 11 12 12 12 11 15 14 14 15 16 14 13 12 11 10 9 8 9 9 9 9 12 13 13 15 15 22 25 20 12 11 16 16 20 20 21 20 24 27 27 26 26 25 26
6 7 6 6 10 13 14 14 15 14 15 16 13 12 11 12 11 12 13 12 10 10 13 12 13 15 13 13 11 11 11 10 12 13 13 14 14 14 15 14 12 9 10 12 11 8 5 7 9 7 9 12 9 7 8 9 13 12 15 14 17 21 21 23 24 26 26 26 26 25 26 27 27 26
9 8 6 5 7 8 10 10 13 18 15 16 18 19 19 16 13 13 14 14 12 12 13 12 13 13 15 15 12 13 14 13 13 13 13 15 15 15 16 18 13 7 6 6 11 12 7 5 9 9 10 11 8 6 9 15 16 13 13 15 16 19 23 26 27 26 28 27 27 27 27 26 26 25
7 9 9 7 4 5 7 9 10 12 17 19 18 19 19 19 19 19 15 14 13 12 14 15 14 14 15 15 13 12 11 12 12 12 15 15 16 16 15 14 15 8 6 13 13 13 8 5 8 10 11 9 7 8 12 16 15 12 17 19 21 25 27 27 28 27 26 27 27 27 26 26 25 26
7 8 9 10 7 3 9 9 9 11 12 17 20 20 19 18 19 18 20 20 16 14 15 14 17 14 14 17 13 14 14 14 18 19 17 16 16 17 19 16 15 14 9 10 13 14 12 4 9 10 10 6 6 7 11 17 15 17 21 24 26 26 26 27 27 27 28 27 27 26 26 26 26 25
7 7 9 10 11 8 6 5 7 10 13 14 14 13 12 11 13 16 17 17 19 16 13 13 17 15 15 16 17 14 13 17 17 17 18 17 18 19 20 20 19 17 12 13 14 13 14 4 5 8 8 3 4 5 10 18 17 22 25 25 26 27 27 27 27 27 27 27 26 26 26 25 25 24
6 7 8 8 10 10 9 8 12 12 13 15 15 16 17 17 14 13 11 10 11 13 13 15 17 17 16 16 16 16 14 15 17 16 20 20 18 18 19 19 17 15 10 10 9 12 13 2 4 4 4 4 4 4 10 18 22 25 25 26 27 27 27 27 27 26 26 26 26 26 24 24 24 23
5 6 7 9 10 11 11 12 22 20 17 15 16 17 16 16 14 13 12 19 19 17 17 16 16 16 18 23 21 19 19 17 16 17 14 14 15 16 16 17 15 14 9 6 8 8 10 1 2 2 3 4 3 3 2 18 25 26 27 27 27 28 27 27 26 26 26 26 25 25 25 24 24 23
5 5 6 8 11 12 12 18 25 24 24 14 15 15 16 15 16 14 14 18 22 24 28 30 33 34 33 31 30 31 33 23 19 16 16 16 15 17 17 16 15 14 10 3 7 7 11 2 2 2 4 4 5 5 4 9 21 26 27 27 28 27 26 26 25 25 25 25 25 25 25 24 23 24
6 7 11 11 10 12 13 22 26 26 20 14 14 15 16 18 17 15 13 13 15 22 25 25 25 25 26 27 29 29 28 27 22 14 17 17 16 16 16 17 15 14 12 8 7 6 3 3 2 3 2 5 5 8 2 9 15 23 23 27 27 27 26 26 26 25 25 25 24 24 24 24 22 14
8 7 8 13 15 16 19 27 25 27 22 15 14 14 16 16 16 15 14 16 17 16 17 17 18 17 19 17 15 16 24 23 20 16 15 13 14 15 17 17 17 16 11 2 8 6 2 6 3 3 3 5 3 6 5 7 7 8 10 14 17 25 25 25 24 24 24 23 23 23 23 21 15 9
13 11 8 10 17 23 25 26 28 27 28 19 15 12 11 14 16 13 15 16 16 16 17 18 18 18 17 15 13 12 12 13 13 14 11 11 12 14 16 16 15 15 12 1 8 7 3 5 7 0 1 5 3 4 6 9 8 7 9 11 11 20 24 23 20 24 22 22 22 21 20 19 15 7
12 12 12 11 18 24 25 26 28 28 28 26 17 14 12 13 19 24 15 18 21 17 17 16 16 15 14 13 12 12 12 12 11 9 9 10 11 13 14 16 16 15 13 2 8 4 4 7 6 2 5 5 5 7 5 7 8 7 7 9 11 9 9 9 8 11 17 21 20 19 18 19 19 12
8 9 10 11 19 28 28 28 28 29 27 29 17 16 25 30 30 22 17 15 14 14 14 14 14 14 14 13 13 13 13 11 6 7 9 11 12 12 10 11 12 12 13 3 12 8 5 6 7 7 6 9 5 5 9 6 5 8 10 10 10 9 9 9 9 9 8 8 8 11 13 18 16 16
11 10 12 13 24 29 29 28 29 27 29 22 16 28 29 29 31 24 13 13 13 13 13 13 13 14 14 14 14 13 10 8 10 11 11 11 10 8 9 9 8 10 12 12 9 9 8 7 7 11 10 9 13 6 8 8 5 6 11 9 10 9 8 8 9 9 8 6 9 17 16 16 15 15
13 14 13 17 29 29 29 28 27 26 24 18 26 27 29 29 25 14 13 12 13 13 13 12 11 13 13 14 11 8 9 11 11 11 10 9 8 7 6 6 7 7 9 11 11 10 6 8 7 4 15 16 16 15 8 5 6 9 9 8 9 8 8 9 8 8 7 8 8 7 6 6 5 8
12 18 26 27 26 26 27 28 26 21 21 25 25 27 27 24 12 12 11 12 13 13 12 13 14 14 14 12 8 10 11 11 9 7 7 6 6 6 6 6 5 8 8 8 4 4 5 8 10 8 5 4 11 9 12 11 8 7 9 12 8 6 8 6 7 6 7 8 7 6 5 5 5 5
24 23 23 25 24 22 20 16 13 13 14 23 26 27 24 12 11 11 12 12 11 12 13 13 13 13 13 13 12 9 8 9 8 7 7 7 6 6 6 5 7 8 10 10 9 8 7 6 8 10 9 7 7 12 13 14 9 8 7 9 10 8 6 6 6 6 7 7 6 6 6 5 5 4
11 16 16 15 20 18 24 22 20 17 16 15 14 12 9 10 11 11 11 12 13 12 12 13 13 13 13 12 11 10 9 9 7 5 5 5 5 5 5 5 6 8 9 11 11 10 9 9 7 6 12 11 8 7 6 10 13 9 7 7 6 9 5 6 5 6 6 6 6 5 5 6 5 5
12 12 14 15 11 10 11 10 7 7 10 10 10 9 10 10 11 12 16 14 11 9 10 11 11 12 12 12 11 9 8 7 6 5 4 4 4 5 4 3 5 5 7 9 11 13 13 10 10 9 8 8 12 10 9 8 9 9 9 6 8 7 7 7 7 6 5 7 7 6 5 4 5 4
10 9 8 9 10 9 10 11 13 13 11 13 11 11 8 9 11 11 9 11 12 13 11 12 11 12 10 11 10 8 8 6 5 5 4 4 4 4 4 5 4 4 7 8 8 10 11 12 14 13 12 12 10 8 12 11 6 6 8 7 8 7 6 5 6 7 6 7 6 5 5 4 5 4
9 9 10 10 11 11 11 13 13 13 13 15 14 12 13 12 12 10 11 11 12 11 11 10 11 10 10 10 10 8 7 5 5 5 5 4 4 4 5 5 5 4 5 6 7 7 9 10 11 12 13 14 14 13 8 9 11 7 7 6 8 8 5 5 6 5 5 4 6 6 4 3 3 4
9 10 11 11 11 12 12 12 12 13 13 13 13 14 14 12 12 14 13 12 12 12 11 11 9 9 9 9 8 7 6 5 5 4 4 4 5 5 4 5 5 5 5 6 6 5 7 8 10 11 9 8 11 12 17 10 7 9 8 6 5 8 6 4 5 5 5 4 4 7 5 4 4 4
10 10 11 11 11 12 13 13 12 12 12 12 12 13 14 15 14 14 12 14 12 12 11 11 10 10 9 8 7 5 5 4 4 4 4 4 4 5 5 5 5 5 5 5 5 3 3 6 8 10 9 6 6 7 7 11 8 2 10 7 5 6 6 5 5 4 5 4 3 5 5 5 3 3
7 8 9 9 10 10 11 12 12 12 12 11 11 11 12 14 14 11 11 14 13 13 12 11 9 9 8 7 6 5 5 4 4 4 4 4 4 4 5 6 6 5 6 5 5 4 3 3 3 8 9 8 8 7 3 4 10 10 4 10 6 5 6 6 6 6 4 3 3 3 4 5 3 2
8 8 8 9 9 10 10 10 11 11 11 11 12 11 12 11 12 13 14 12 11 9 11 9 9 8 7 6 5 5 4 4 3 4 4 4 3 4 4 5 5 5 5 6 6 6 5 5 5 3 6 10 8 8 6 1 3 5 5 4 9 6 5 6 6 5 4 4 4 2 3 6 4 1
7 8 9 9 10 10 10 11 11 12 12 12 12 12 13 13 12 11 12 12 12 10 10 10 8 7 6 6 5 4 4 4 4 4 4 4 4 4 4 4 5 4 6 8 6 6 7 8 5 6 5 6 7 6 8 8 5 3 6 8 7 8 3 6 6 4 4 4 4 3 3 1 1 3
8 7 8 9 9 9 9 10 10 10 10 11 11 13 13 14 14 14 13 12 12 12 10 9 8 7 5 5 5 4 4 4 4 4 4 4 4 4 4 3 4 5 6 7 7 6 7 6 6 5 6 7 8 10 10 10 7 6 6 6 5 3 6 6 5 6 4 2 3 5 3 2 2 3
7 7 7 7 8 8 9 9 9 9 10 10 12 13 12 13 13 13 13 12 12 11 10 10 8 6 5 5 4 3 3 3 3 3 3 3 4 4 5 4 5 4 7 6 5 6 6 5 4 7 10 10 11 10 9 8 7 4 6 5 8 11 7 6 7 5 5 3 4 6 5 3 1 3
6 6 7 6 7 8 8 9 9 9 9 10 10 11 12 13 12 19 16 16 13 12 10 9 7 6 5 4 4 4 3 2 2 3 3 2 3 4 5 4 5 4 6 6 5 4 3 3 4 5 5 5 4 6 6 8 8 6 4 4 5 8 11 11 7 7 8 8 6 5 3 2 2 3
6 6 7 7 7 7 8 9 8 9 9 9 9 10 10 12 12 13 12 13 12 11 11 10 7 5 4 4 4 3 2 2 2 2 2 2 2 3 4 4 5 5 6 5 4 4 4 5 5 5 5 6 5 4 9 7 7 6 6 7 4 4 6 9 10 12 10 7 5 4 2 4 4 2
5 6 6 6 7 8 8 8 8 8 9 9 9 9 9 10 12 12 12 12 12 12 11 10 8 6 4 3 3 3 3 2 2 2 2 1 2 3 5 5 5 6 7 8 6 5 4 6 7 5 6 5 3 8 9 9 7 6 5 5 3 4 4 5 6 8 8 8 7 4 4 4 2 3
6 6 6 6 6 7 7 8 8 8 8 9 9 9 10 9 9 10 10 10 10 11 11 11 9 6 4 4 3 2 2 2 3 2 2 3 4 4 3 4 6 6 6 4 7 5 4 5 5 6 7 5 4 6 6 6 8 7 5 5 5 3 3 3 2 2 2 2 8 9 4 1 2 3
Wind_Direction
338 333 325 299 293 293 296 296 281 281 288 281 285 287 296 303 302 311 311 307 319 292 250 295 285 180 348 325 312 296 289 306 311 308 303 300 300 304 304 303 303 302 302 302 301 300 300 299 296 295 292 286 283 282 286 288 283 284 285 284 279 283 287 287 287 287 285 283 280 278 276 244 172 162
332 316 314 298 298 289 303 289 288 289 280 281 274 270 266 267 275 277 295 295 300 306 303 212 277 306 293 277 300 303 294 294 297 291 290 293 293 294 295 297 299 298 299 298 299 297 295 295 293 291 290 289 290 291 290 289 288 289 290 288 287 287 288 288 287 287 286 284 283 279 270 193 182 176
344 327 317 312 303 299 298 294 296 287 283 273 272 269 268 261 257 275 279 292 287 301 299 299 282 291 301 301 291 295 294 288 293 294 293 293 293 294 293 291 290 296 296 297 297 297 296 295 296 296 294 293 293 292 292 292 295 294 291 289 288 289 289 288 286 283 280 277 277 277 232 196 185 178
338 335 324 312 306 303 302 292 286 285 278 271 269 265 262 259 256 263 276 271 282 293 292 294 298 297 295 301 301 295 294 292 295 298 293 292 292 292 290 288 287 288 293 294 295 293 293 294 293 292 290 290 290 290 291 292 291 291 290 289 288 287 284 282 280 279 276 275 274 274 234 205 184 170
341 325 309 298 293 293 292 284 287 286 281 281 271 264 264 262 251 253 263 274 282 290 286 281 286 301 310 299 299 304 304 304 295 289 295 297 292 289 289 289 287 286 286 290 293 295 295 294 293 291 289 286 286 287 288 287 287 286 285 284 287 285 281 278 280 277 277 272 269 265 215 171 168 165
320 311 302 295 291 288 283 287 286 280 286 278 273 264 252 258 257 236 252 265 278 286 298 297 290 286 281 288 294 303 306 304 306 299 294 288 285 287 287 289 289 287 288 288 290 292 293 294 293 289 286 285 283 286 286 286 285 284 282 284 284 283 280 278 277 279 275 271 262 242 184 177 169 167
313 314 303 295 297 302 300 289 283 284 277 270 263 265 254 257 258 246 235 257 267 278 285 289 296 292 295 280 294 298 293 293 297 298 297 295 292 286 283 281 282 285 286 285 285 286 288 287 287 283 284 284 288 287 285 287 286 285 285 284 282 276 276 274 276 275 273 266 256 196 175 168 157 151
310 303 306 297 302 306 300 293 294 287 274 274 275 273 266 259 265 257 248 243 257 271 284 287 290 294 304 294 290 290 287 286 288 286 294 294 288 287 283 277 278 278 284 284 285 283 281 282 285 287 286 285 286 287 287 287 285 284 283 282 278 275 272 275 270 273 261 232 174 152 151 148 147 146
289 289 279 286 295 296 294 295 295 295 296 289 281 276 277 269 266 266 256 253 250 260 263 278 282 288 285 284 291 294 299 300 289 291 291 290 290 289 283 278 273 276 281 278 277 279 282 284 285 284 284 286 288 287 287 286 285 283 283 282 277 276 274 269 267 224 142 128 141 144 142 142 141 136
281 276 281 284 288 292 289 291 293 294 289 289 282 277 277 273 269 269 266 259 258 257 264 271 285 282 288 296 285 296 290 289 297 298 295 294 287 284 286 278 280 278 277 274 261 266 275 278 279 282 285 287 289 288 285 284 284 284 283 281 281 274 271 264 204 152 137 132 134 140 140 137 136 140
278 276 278 285 286 285 284 285 289 293 292 287 281 277 278 280 279 274 273 271 266 263 268 270 266 279 280 280 293 299 294 287 285 295 298 296 302 301 297 293 283 280 274 262 267 265 263 268 274 280 284 284 285 282 282 283 284 284 283 283 277 271 246 156 128 123 120 124 128 131 130 134 135 133
286 284 284 283 283 279 279 279 284 285 290 292 291 284 274 280 286 285 284 278 270 270 269 266 278 260 277 284 270 283 293 293 286 271 289 297 302 298 297 293 297 288 280 283 273 268 269 269 274 283 289 284 279 281 284 281 279 278 281 278 252 219 154 137 126 121 119 120 124 126 130 131 131 129
294 291 282 280 279 277 276 277 279 281 281 290 295 295 295 288 283 285 285 280 279 270 268 275 266 278 279 277 285 293 294 295 297 303 294 286 285 291 292 290 286 288 288 280 276 274 254 267 273 269 278 281 279 279 274 276 275 277 263 240 129 113 110 105 108 117 123 130 130 129 128 127 126 126
293 289 290 285 280 284 287 288 287 283 282 284 279 286 297 299 296 292 292 287 280 279 282 279 288 289 286 291 294 292 288 292 290 283 285 291 300 295 288 284 283 289 287 286 282 275 261 258 268 271 273 276 279 268 274 269 270 243 216 182 148 135 136 134 137 135 133 128 124 125 123 121 120 119
306 303 294 288 293 292 292 293 295 306 291 291 292 289 287 285 288 294 292 290 292 292 285 286 287 284 287 290 292 290 294 291 291 295 297 298 296 293 296 297 295 263 257 264 288 287 270 228 264 270 267 273 281 268 265 270 246 207 181 149 140 141 140 136 131 127 126 123 119 116 116 117 118 118
303 306 308 306 299 293 295 303 304 301 304 304 298 296 293 288 282 283 285 293 294 289 291 293 289 292 291 295 292 292 295 295 299 297 295 289 285 285 282 280 283 286 283 287 288 287 281 188 253 266 268 270 269 267 265 250 212 184 157 152 144 134 125 123 122 121 118 117 117 118 119 120 120 118
306 308 311 313 313 305 304 306 301 304 303 304 301 296 288 286 286 281 280 281 274 283 282 285 288 288 294 287 289 290 292 306 297 294 290 290 290 289 287 284 287 290 296 289 285 287 288 188 253 264 269 266 263 260 248 223 188 174 157 140 130 126 124 122 121 119 119 119 120 121 121 119 118 117
308 307 311 313 314 318 315 299 300 304 305 306 306 305 301 299 294 294 292 290 284 278 279 280 283 282 282 285 285 287 294 291 290 290 289 291 291 291 291 291 288 286 285 277 284 282 283 186 247 253 269 283 265 249 228 203 188 154 141 134 129 125 122 121 120 120 120 120 121 121 121 119 117 116
304 307 305 306 305 312 319 319 319 315 314 318 319 318 316 312 309 301 297 288 289 290 283 280 279 282 279 278 281 281 282 280 277 280 284 286 287 289 289 284 280 278 262 258 257 270 284 96 244 266 320 306 269 245 232 195 161 145 136 130 126 124 123 122 121 121 122 121 121 122 122 121 120 119
305 303 308 311 314 315 317 321 327 327 325 318 313 309 305 302 299 294 289 289 287 283 283 281 280 279 279 278 280 285 286 283 287 286 283 285 287 291 292 289 292 286 279 226 240 258 271 151 203 317 337 304 301 259 265 168 148 138 131 128 126 124 124 123 123 123 124 125 125 125 125 124 123 123
316 318 319 323 321 319 318 322 324 323 325 313 305 300 299 298 299 299 302 297 295 294 291 290 291 291 289 291 290 289 289 286 288 290 290 290 294 296 293 290 289 284 288 220 221 248 268 148 147 27 360 355 2 348 115 134 137 131 128 126 125 125 125 126 126 128 127 127 127 126 126 124 123 123
325 326 332 327 317 316 314 319 321 322 323 313 307 303 303 304 303 304 305 303 301 295 294 293 289 286 284 283 284 284 283 285 287 287 288 288 291 288 288 290 289 289 282 257 192 237 243 122 118 92 334 31 11 347 61 116 126 125 125 124 124 124 125 127 126 126 126 126 126 126 124 124 122 117
325 322 324 323 325 320 317 319 320 321 322 313 309 308 305 303 302 302 305 304 302 303 304 302 301 296 290 288 283 281 281 280 281 277 276 284 283 283 286 289 292 291 285 221 169 218 182 147 211 167 102 35 322 3 4 87 95 106 112 115 118 123 123 123 122 123 124 125 124 124 122 118 109 108
324 327 324 326 325 322 320 319 320 320 320 318 311 307 302 304 302 305 303 301 301 301 301 299 298 295 295 293 288 284 285 282 276 275 276 279 279 280 288 291 291 290 293 276 192 205 176 173 161 52 351 144 115 331 28 45 59 74 96 106 108 116 116 116 118 119 120 120 120 119 121 121 112 87
322 322 323 319 322 322 321 321 321 321 321 320 317 315 307 303 306 310 307 305 303 302 300 299 298 298 299 297 295 292 291 290 288 289 291 298 296 297 297 294 289 288 287 261 213 136 171 183 151 86 60 41 110 107 26 50 22 39 64 90 96 90 89 89 97 105 114 114 113 117 122 121 117 110
310 314 314 315 321 323 323 323 322 321 320 320 318 308 309 312 314 314 308 303 302 300 301 300 300 301 301 303 301 297 294 297 323 333 316 304 298 289 288 287 288 290 284 264 208 199 158 178 166 130 124 116 28 88 107 47 21 51 65 68 78 82 87 87 83 82 76 86 97 111 121 124 123 120
314 313 314 311 318 321 322 321 322 321 321 320 313 316 318 318 319 318 308 304 301 299 299 298 297 299 302 304 301 300 317 328 322 313 307 304 302 293 288 282 272 272 277 281 246 212 188 162 158 147 140 133 118 87 90 103 94 84 71 68 70 71 71 79 86 89 87 90 105 114 114 119 123 122
318 318 316 317 320 321 321 322 322 322 322 319 319 321 320 323 322 315 311 304 302 299 299 296 295 300 301 301 309 328 321 314 318 310 304 303 299 291 297 305 300 290 294 273 242 203 179 145 142 159 145 145 139 138 113 53 89 99 98 79 71 75 78 84 86 79 77 83 78 84 75 76 74 113
309 312 315 317 319 320 322 323 323 320 319 319 321 322 323 321 313 315 310 307 305 302 302 305 308 308 313 318 318 317 317 314 312 310 306 297 290 291 290 292 330 352 341 344 14 88 129 144 136 126 100 109 118 111 120 126 124 111 115 109 83 73 77 66 80 77 91 87 83 75 51 86 72 48
316 317 320 321 321 322 322 322 318 316 316 322 324 322 318 314 320 316 312 309 311 313 316 315 316 320 320 318 319 316 312 315 317 322 315 323 332 343 337 343 5 6 9 8 25 45 67 91 119 120 100 70 101 126 132 125 110 111 98 101 113 86 67 70 68 75 82 80 72 74 71 63 69 65
317 324 326 324 324 319 318 316 312 308 316 322 318 311 314 321 314 312 312 314 319 320 316 320 321 318 315 314 317 325 326 319 321 321 317 325 329 340 340 11 19 13 15 26 31 35 56 67 62 92 112 103 80 81 93 105 115 112 99 110 118 119 126 88 72 80 77 82 72 68 68 72 68 55
330 328 325 322 314 307 304 303 300 320 317 308 310 317 321 314 312 310 312 314 310 308 317 312 309 309 315 316 321 323 321 320 320 325 326 344 335 337 330 17 17 9 25 29 37 39 48 45 60 57 58 101 117 108 86 83 98 111 110 89 78 82 102 109 105 98 78 95 86 78 69 54 69 61
327 320 318 315 319 319 321 329 336 331 326 328 327 324 315 318 321 325 333 328 326 325 321 317 315 314 317 317 323 322 320 324 329 325 332 350 1 351 33 58 31 29 53 47 48 51 56 62 59 64 69 63 50 80 115 107 81 91 109 110 107 103 103 104 113 116 97 89 92 97 83 38 19 63
330 326 323 326 325 327 338 339 336 337 338 333 330 329 334 331 330 330 333 328 324 321 318 315 316 318 321 319 324 325 322 321 343 348 6 355 0 36 48 55 38 27 51 65 64 74 79 78 78 70 70 67 59 44 33 107 118 108 98 106 110 109 104 108 106 100 90 111 130 108 89 61 40 16
342 334 334 337 340 345 341 340 341 336 332 330 329 328 327 329 330 331 330 328 324 321 317 317 316 319 324 321 322 323 329 334 339 347 360 15 34 50 52 64 54 41 46 64 69 72 98 101 98 89 72 73 69 44 43 41 107 110 99 87 97 115 113 106 108 96 107 103 110 108 92 82 64 16
344 349 348 347 346 342 340 336 335 333 328 325 322 324 328 327 329 329 326 327 323 318 318 320 323 326 327 325 324 328 334 344 350 357 7 20 41 56 56 59 61 53 50 50 51 28 69 104 113 110 105 89 88 79 15 29 45 86 116 111 99 106 103 99 88 89 98 96 98 121 115 126 115 58
347 348 346 343 339 337 332 330 329 327 325 320 318 322 325 322 319 317 318 321 320 318 319 321 323 326 327 328 329 338 347 355 360 360 20 21 42 51 74 62 58 55 57 37 25 16 12 60 74 114 115 99 98 92 69 323 57 55 97 120 112 105 119 115 107 88 47 91 70 65 123 125 120 119
351 346 341 338 336 332 325 323 326 322 320 321 319 321 321 315 312 314 319 318 318 315 320 324 324 327 328 331 336 343 352 0 6 18 16 20 38 52 59 79 68 61 62 46 35 29 30 41 38 24 113 123 121 125 120 7 35 31 67 109 124 134 123 118 107 109 74 42 74 67 87 102 105 176
347 346 341 335 333 331 327 326 324 323 319 319 324 325 322 319 317 317 320 320 319 320 322 324 328 329 334 335 343 346 352 358 11 17 22 25 41 64 71 77 82 54 69 60 33 22 33 37 10 28 58 105 120 131 130 125 93 54 82 103 123 121 121 121 112 94 102 95 77 64 48 338 259 37
344 339 335 331 326 326 324 324 323 323 319 321 323 321 320 320 319 317 317 321 323 323 322 323 327 332 334 339 343 349 7 16 19 32 35 46 45 57 59 57 72 83 80 57 42 31 38 21 12 356 85 91 91 93 98 96 97 73 74 87 64 69 142 127 123 131 86 87 111 87 75 37 40 329
334 331 327 324 321 324 324 323 320 318 317 318 320 321 320 318 318 317 318 321 323 321 324 325 329 333 335 340 349 360 12 22 32 38 52 56 72 72 80 76 68 63 85 68 40 38 28 330 351 81 98 105 114 118 94 77 72 62 64 52 86 100 93 104 134 131 129 136 92 94 82 84 77 15
322 319 318 321 326 322 322 320 319 319 319 323 322 322 321 321 317 318 317 321 324 324 323 325 327 330 336 345 351 7 26 33 34 44 49 67 82 73 63 64 81 62 70 73 49 44 317 351 30 67 65 83 64 79 85 112 117 102 82 43 18 78 102 113 107 110 130 131 119 104 84 40 28 38
319 315 317 321 322 320 319 318 318 321 320 321 318 319 320 320 320 323 324 323 326 328 329 326 326 328 340 349 357 11 39 43 46 58 59 50 69 89 83 57 67 75 94 95 83 46 53 29 28 47 54 54 46 81 117 121 115 103 89 84 69 41 37 56 95 118 136 141 117 132 162 163 132 177
310 312 311 317 319 319 317 316 318 320 320 318 317 319 320 321 321 321 322 323 326 329 328 326 325 331 342 347 356 17 26 37 60 79 72 48 50 77 97 99 94 95 77 99 95 69 47 42 28 37 61 40 19 106 125 123 118 115 107 89 48 56 51 5 9 33 39 48 70 70 92 130 123 148
306 306 309 313 315 315 316 316 317 318 318 317 319 321 321 317 313 316 318 320 322 325 326 327 327 326 334 346 1 11 13 66 76 59 63 65 77 84 80 104 113 112 101 93 104 81 61 63 46 50 61 45 42 94 104 109 118 124 106 103 90 49 24 12 33 33 13 339 14 30 40 355 187 213